Location: Unspecified
(49.2170°N, 0.0000°E)
Time: 00:39:58
(UTC+00:00)

A-11 Canister half - Pass Details

Date: 26 June 2021
Orbit: 1513 x 1687 km, 47.2° (Epoch: 30 July)

Event Time Altitude Azimuth Distance (km) Brightness Sun altitude
Exits shadow 02:49:36 10° 220° (SW) 3,968 10.5 -8.5°
Reaches altitude 10° 02:49:43 10° 220° (SW) 3,937 10.4 -8.5°
Maximum altitude 02:59:19 51° 149° (SSE) 2,004 9.5 -7.5°
Drops below altitude 10° 03:08:41 10° 77° (ENE) 3,846 12.0 -6.5°
Sets 03:11:51 0° 73° (ENE) 4,809 12.8 -6.1°
